History for Miami, FL

Thursday, February 21, 2013 — View Current Conditions

Jump to Data:

Date:
Airport Code:
Recently Viewed Airport Codes: KMIA
Daily Summary
  Actual Average Record
Temperature
Mean Temperature 75°F 71°F  
Max Temperature 82°F 79°F 86°F (1989)
Min Temperature 68°F 63°F 41°F (1977)
Degree Days
Heating Degree Days 0 1  
Month to date heating degree days 16 21  
Since 1 July heating degree days 36 111  
Cooling Degree Days 10 7  
Month to date cooling degree days 128 122  
Year to date cooling degree days 397 273  
Growing Degree Days 26 (Base 50)    
Moisture
Dew Point 65°F    
Average Humidity 71    
Maximum Humidity 84    
Minimum Humidity 58    
Precipitation
Precipitation 0.00 in 0.07 in 2.51 in (1922)
Month to date precipitation 1.74 1.67  
Year to date precipitation 2.28 3.29  
Snow
Snow 0.00 in in in ()
Month to date snowfall 0.0  
Since 1 July snowfall 0.0  
Snow Depth 0.00 in    
Sea Level Pressure
Sea Level Pressure 30.06 in    
Wind
Wind Speed 9 mph (ESE)    
Max Wind Speed 16 mph    
Max Gust Speed 21 mph    
Visibility 10 miles    
Events      
T = Trace of Precipitation, MM = Missing Value Source: NWS Daily Summary

Show full METARS

(help) - Comma Delimited File

Hourly Observations

Time(EST) Temperature Dew Point Humidity Sea Level Pressure Visibility Wind Direction Wind Speed Gust Speed Precipitation Events Conditions
12:53 AM 73.0°F 66.9°F 81% 30.07 in 10.0 miles East 8.1 mph - N/A   Overcast
1:53 AM 73.0°F 66.0°F 79% 30.05 in 10.0 miles East 10.4 mph - N/A   Overcast
2:53 AM 72.0°F 64.9°F 78% 30.04 in 10.0 miles East 6.9 mph - N/A   Overcast
3:53 AM 71.1°F 64.9°F 81% 30.01 in 10.0 miles SE 5.8 mph - N/A   Scattered Clouds
4:53 AM 71.1°F 64.0°F 78% 30.02 in 10.0 miles SE 5.8 mph - N/A   Partly Cloudy
5:53 AM 70.0°F 64.0°F 81% 30.04 in 10.0 miles East 4.6 mph - N/A   Scattered Clouds
6:53 AM 70.0°F 64.0°F 81% 30.06 in 10.0 miles East 4.6 mph - N/A   Mostly Cloudy
7:53 AM 73.9°F 66.0°F 76% 30.08 in 10.0 miles East 3.5 mph - N/A   Mostly Cloudy
8:53 AM 75.9°F 64.9°F 69% 30.10 in 10.0 miles ESE 9.2 mph - N/A   Scattered Clouds
9:49 AM 78.8°F 64.4°F 61% 30.10 in 10.0 miles ESE 10.4 mph - N/A   Mostly Cloudy
9:53 AM 79.0°F 64.9°F 62% 30.11 in 10.0 miles ESE 9.2 mph - N/A   Mostly Cloudy
10:53 AM 79.0°F 64.0°F 60% 30.09 in 10.0 miles East 13.8 mph - N/A   Mostly Cloudy
11:06 AM 80.6°F 64.4°F 58% 30.09 in 10.0 miles East 15.0 mph 19.6 mph N/A   Mostly Cloudy
11:53 AM 80.1°F 64.9°F 60% 30.10 in 10.0 miles ESE 11.5 mph - N/A   Mostly Cloudy
12:47 PM 80.6°F 64.4°F 58% 30.08 in 10.0 miles SE 12.7 mph 18.4 mph N/A   Mostly Cloudy
12:53 PM 81.0°F 64.0°F 56% 30.08 in 10.0 miles SE 13.8 mph 18.4 mph N/A   Mostly Cloudy
1:53 PM 81.0°F 64.0°F 56% 30.06 in 10.0 miles East 13.8 mph - N/A   Mostly Cloudy
2:53 PM 80.1°F 64.0°F 58% 30.05 in 10.0 miles ESE 11.5 mph - N/A   Mostly Cloudy
3:53 PM 78.1°F 64.0°F 62% 30.04 in 10.0 miles ESE 10.4 mph - N/A   Mostly Cloudy
4:53 PM 78.1°F 64.0°F 62% 30.04 in 10.0 miles East 11.5 mph - N/A   Scattered Clouds
5:53 PM 75.9°F 63.0°F 64% 30.05 in 10.0 miles ESE 11.5 mph - N/A   Scattered Clouds
6:53 PM 73.9°F 64.9°F 73% 30.05 in 10.0 miles ESE 9.2 mph - N/A   Partly Cloudy
7:53 PM 73.9°F 64.9°F 73% 30.06 in 10.0 miles ESE 9.2 mph - N/A   Partly Cloudy
8:53 PM 73.0°F 64.9°F 76% 30.06 in 10.0 miles ESE 9.2 mph - N/A   Clear
9:53 PM 73.0°F 66.0°F 79% 30.07 in 10.0 miles East 8.1 mph - N/A   Clear
10:53 PM 73.0°F 66.9°F 81% 30.07 in 10.0 miles ESE 9.2 mph - N/A   Partly Cloudy
11:53 PM 73.0°F 66.9°F 81% 30.06 in 10.0 miles East 9.2 mph - N/A   Scattered Clouds